Location: Newark
(18.7969°S, 47.4789°E)
Time: 12:43:28
(UTC+00:00)

X-37B - Visible Passes

Search period start: 28 February 2021 00:00
Search period end: 10 March 2021 00:00
Orbit: 383 x 391 km, 45.0° (Epoch: 27 February)

Date Brightness Start Highest point End Pass type
(mag) Time Alt. Az. Time Alt. Az. Time Alt. Az.
28 Feb 2.8 17:02:13 10° WSW 17:04:00 27° W 17:04:00 27° W visible
01 Mar 0.6 16:03:46 10° SW 16:06:59 65° SE 16:08:46 23° ENE visible
02 Mar 3.1 16:42:59 10° W 16:45:03 16° NW 16:45:59 14° NNW visible
03 Mar 1.8 15:43:44 10° WSW 15:46:48 41° NW 15:49:51 10° NNE visible
